www.pogodaiklimat.ru

Погода и климат >> Архив погоды >> Гренландия >> Mittarfik Qaanaaq


ПОГОДА в Mittarfik Qaanaaq

  • Прогноз погоды в Mittarfik Qaanaaq
  • Монитор погоды в Mittarfik Qaanaaq

АРХИВ ПОГОДЫ в Mittarfik Qaanaaq

Время (UTC), дата Ветер
(напр.,м/с)
 
Видим.   Явления Облачность Т
(С)
Тd
(С)
f
(%)
Тe
(С)
Тes
(С)
Комфортность P
(гПа)
Po
(гПа)
Тmin
(С)
Tmax
(С)
R
(мм)
R24
(мм)
S
(см)
07 13.04 С 1 11 км снежные зёрна {ливн. осадки} н/о -14.8 -17.8 78 -15 -15 1011.2 1008.6
08 13.04 ЮВ 1 16 км слаб. снег н/о -14.3 -18.2 72 -17 -17 1010.6 1008.1
09 13.04 ЮВ 1 15 км снежные зёрна {ливн. осадки} н/о -14.5 -18.4 72 -17 -17 1010.1 1007.6
10 13.04 ЮВ 2 14 км снежные зёрна {ливн. осадки} н/о -14.6 -18.9 70 -19 -19 1009.6 1007.0
11 13.04 ЮВ 2 13 км снежные зёрна {ливн. осадки} н/о -14.6 -18.7 71 -20 -20 1008.8 1006.2
12 13.04 ЮВ 1 7000 м снежные зёрна н/о -13.9 -18.6 68 -14 -14 1007.8 1005.3
13 13.04 ЮВ 1 15 км слаб. ливневой снег н/о -13.8 -18.7 66 -14 -14 1006.6 1004.1
14 13.04 ЮВ 1 18 км {ливн. осадки, снег} н/о -12.9 -19.1 60 -13 -13 1005.3 1002.8
15 13.04 ЮВ 1 19 км слаб. ливневой снег н/о -13.0 -18.8 62 -13 -13 1004.5 1002.0
16 13.04 ЮВ 1 14 км {ливн. осадки, снег} н/о -12.9 -18.9 61 -15 -15 1003.5 1001.1
17 13.04 ЮВ 1 19 км {ливн. осадки, снег} н/о -12.1 -18.3 60 -14 -14 1003.0 1000.5
18 13.04 ЮВ 1 26 км н/о -11.2 -18.4 55 -11 -11 1002.2 999.7 -15.3 -11.1
19 13.04 СВ 2 23 км н/о -14.1 -20.0 61 -19 -19 1001.8 999.3
20 13.04 СВ 3 35 км н/о -14.3 -19.8 63 -20 -20 1002.2 999.7
21 13.04 В 3 30 км н/о -16.5 -21.5 65 -24 -24 1003.1 1000.6
22 13.04 ЮВ 2 50 км н/о -15.7 -21.1 63 -21 -21 1004.0 1001.5
23 13.04 С 1 50 км н/о -17.7 -22.6 65 -18 -18 1005.2 1002.7
00 14.04 С 2 45 км н/о -16.0 -21.2 64 -21 -21 1006.3 1003.8
01 14.04 В 5 30 км слаб. ливневой снег н/о -15.0 -21.1 60 -23 -23 1007.5 1005.0
02 14.04 В 4 25 км снежные кристаллы н/о -15.0 -21.5 58 -23 -23 1008.2 1005.7
03 14.04 В 3 35 км слаб. ливневой снег н/о -14.8 -21.1 59 -21 -21 1009.3 1006.8
04 14.04 ЮВ 1 28 км в посл. час зёрна {ливн. осадки} н/о -15.6 -21.2 62 -16 -16 1009.9 1007.3
05 14.04 ЮВ 3 16 км снежные зёрна {ливн. осадки} н/о -16.8 -21.0 70 -23 -23 1010.3 1007.7
06 14.04 ЮВ 3 40 км в посл. час зёрна {ливн. осадки} н/о -17.6 -22.0 68 -24 -24 1010.5 1008.0 -17.9 -10.5
07 14.04 ЮВ 1 27 км {ливн. осадки} н/о -18.8 -22.8 71 -22 -22 1010.5 1007.9
08 14.04 ЮВ 1 45 км {ливн. осадки} н/о -19.7 -23.4 72 -20 -20 1010.2 1007.6
09 14.04 ЮВ 1 45 км {ливн. осадки} н/о -20.0 -23.9 71 -21 -21 1010.0 1007.4
10 14.04 СВ 1 50 км {ливн. осадки} н/о -20.5 -25.5 64 -21 -21 1009.8 1007.2
11 14.04 СВ 1 35 км {ливн. осадки} н/о -17.5 -23.9 57 -20 -20 1009.3 1006.7
12 14.04 СВ 1 29 км н/о -19.7 -25.7 59 -23 -23 1009.1 1006.5
13 14.04 СВ 1 19 км н/о -18.5 -24.2 61 -19 -19 1008.3 1005.8
14 14.04 СВ 1 30 км н/о -16.9 -24.2 53 -17 -17 1007.6 1005.1
15 14.04 СВ 1 24 км н/о -17.0 -23.0 60 -20 -20 1006.9 1004.3
16 14.04 СВ 1 12 км н/о -17.8 -24.6 55 -18 -18 1006.4 1003.9
17 14.04 СВ 1 21 км н/о -17.5 -24.5 54 -18 -18 1005.7 1003.2
18 14.04 СВ 1 30 км н/о -18.6 -24.3 61 -19 -19 1005.3 1002.8 -20.8 -15.1
19 14.04 СВ 2 28 км н/о -18.9 -24.2 63 -23 -23 1004.7 1002.1
20 14.04 С 1 30 км н/о -19.1 -23.8 66 -22 -22 1004.5 1002.0
21 14.04 С 1 22 км н/о -19.5 -24.0 67 -20 -20 1004.4 1001.9
22 14.04 С 1 30 км н/о -19.6 -23.9 69 -20 -20 1004.2 1001.6
23 14.04 С 1 30 км н/о -19.7 -23.8 70 -20 -20 1004.3 1001.7
00 15.04 С 1 40 км н/о -19.6 -24.3 66 -20 -20 1004.3 1001.7
01 15.04 С 1 45 км н/о -19.5 -24.9 62 -20 -20 1004.1 1001.5
02 15.04 С 1 50 км н/о -20.4 -25.2 65 -24 -24 1004.1 1001.5
03 15.04 штиль 0 50 км н/о -20.7 -26.1 62 -21 -21 1003.6 1001.0
04 15.04 С 1 50 км н/о -20.8 -25.6 65 -22 -22 1003.0 1000.5
05 15.04 С 1 50 км н/о -21.9 -26.1 69 -25 -25 1002.9 1000.3
06 15.04 С 1 50 км н/о -21.5 -26.4 65 -22 -22 1002.4 999.8 -22.7 -18.4
07 15.04 В 1 50 км н/о -22.3 -26.8 67 -23 -23 1002.3 999.7
08 15.04 штиль 0 50 км н/о -21.3 -26.6 62 -21 -21 1001.9 999.4
09 15.04 В 1 50 км н/о -21.4 -26.7 62 -22 -22 1001.8 999.3
10 15.04 ЮВ 1 45 км н/о -21.0 -26.2 63 -22 -22 1001.5 998.9
11 15.04 штиль 0 40 км н/о -20.4 -25.6 63 -20 -20 1001.2 998.6
12 15.04 штиль 0 30 км н/о -18.0 -25.2 53 -18 -18 1000.4 997.8
13 15.04 ЮВ 1 20 км н/о -19.3 -26.4 53 -20 -20 999.7 997.2
14 15.04 В 1 26 км н/о -18.3 -24.8 57 -19 -19 999.2 996.6
15 15.04 штиль 0 27 км н/о -16.7 -23.5 56 -17 -17 998.9 996.4
16 15.04 ЮВ 2 27 км н/о -17.1 -23.3 58 -21 -21 998.1 995.6
17 15.04 ЮВ 1 28 км н/о -17.3 -22.2 66 -20 -20 997.7 995.2
18 15.04 ЮВ 1 30 км н/о -16.2 -21.0 66 -19 -19 997.5 995.0 -22.8 -16.2
19 15.04 ЮВ 2 26 км н/о -16.5 -21.5 65 -21 -21 997.4 994.9
20 15.04 ЮВ 1 6000 м слаб. ливневой снег н/о -15.9 -21.1 64 -19 -19 997.4 994.9
21 15.04 ЮВ 1 9000 м снежные зёрна {ливн. осадки} н/о -15.7 -20.7 65 -16 -16 997.3 994.8
22 15.04 ЮВ 1 4300 м слаб. ледяной дождь н/о -15.5 -20.3 67 -16 -16 997.4 994.9
23 15.04 ЮВ 1 6000 м снежные зёрна {ливн. осадки} н/о -16.0 -20.4 69 -19 -19 997.3 994.8
00 16.04 ЮВ 1 6000 м снежные зёрна н/о -16.3 -20.3 71 -19 -19 997.3 994.8
01 16.04 ЮВ 2 2700 м слаб. снег н/о -16.2 -20.1 72 -22 -22 997.4 994.9
02 16.04 СЗ 2 2000 м слаб. снег н/о -16.1 -19.6 74 -21 -21 997.3 994.8
03 16.04 СЗ 1 1700 м слаб. снег н/о -16.3 -19.5 76 -17 -17 997.3 994.8
04 16.04 СЗ 1 1400 м слаб. снег н/о -16.1 -19.3 76 -17 -17 997.2 994.7
05 16.04 СЗ 1 1100 м слаб. снег н/о -16.2 -19.4 76 -19 -19 997.6 995.1
06 16.04 З 2 1500 м слаб. снег н/о -16.1 -19.3 76 -20 -20 997.9 995.4 -16.7 -14.9
07 16.04 В 1 1800 м слаб. снег н/о -16.1 -19.1 78 -17 -17 998.9 996.4
08 16.04 В 1 1900 м слаб. снег н/о -15.9 -18.9 78 -19 -19 999.8 997.3
09 16.04 СЗ 1 1400 м слаб. снег н/о -15.7 -18.9 76 -16 -16 1000.8 998.3
10 16.04 ЮВ 1 6000 м слаб. снег н/о -15.9 -19.4 74 -16 -16 1001.7 999.2
11 16.04 ЮВ 1 10 км слаб. снег н/о -16.4 -20.1 73 -19 -19 1002.7 1000.2
12 16.04 ЮВ 1 22 км в посл. час снег н/о -14.9 -19.0 71 -15 -15 1003.8 1001.3
13 16.04 ЮВ 3 12 км {ливн. осадки, снег} н/о -13.8 -18.1 70 -20 -20 1004.8 1002.3
14 16.04 ЮВ 3 7000 м снежные зёрна {ливн. осадки} н/о -13.3 -17.5 71 -19 -19 1006.0 1003.5
15 16.04 ЮВ 3 3100 м снежные зёрна {ливн. осадки} н/о -13.0 -17.0 72 -19 -19 1007.0 1004.5
16 16.04 ЮВ 4 2600 м снежные зёрна {ливн. осадки} н/о -13.3 -16.6 76 -20 -20 1008.6 1006.1
17 16.04 ЮВ 1 1000 м слаб. снег н/о -13.0 -16.3 76 -15 -15 1009.3 1006.8
18 16.04 В 2 2700 м слаб. снег н/о -13.1 -16.5 76 -18 -18 1010.2 1007.7 -16.8 -12.8
19 16.04 В 1 10 км слаб. снег н/о -12.1 -16.5 70 -14 -14 1010.8 1008.3
20 16.04 В 1 25 км {ливн. осадки, снег} н/о -13.2 -17.6 69 -16 -16 1011.5 1009.0
21 16.04 штиль 0 23 км {ливн. осадки, снег} н/о -14.2 -18.3 71 -14 -14 1012.2 1009.7
22 16.04 В 2 25 км {ливн. осадки, снег} н/о -14.9 -19.0 71 -19 -19 1012.7 1010.2
23 16.04 С 2 35 км {ливн. осадки, снег} н/о -15.8 -21.0 64 -21 -21 1013.2 1010.6
00 17.04 С 1 30 км н/о -15.1 -20.1 66 -18 -18 1013.2 1010.6
01 17.04 СЗ 2 45 км н/о -14.9 -20.4 63 -20 -20 1013.1 1010.6
02 17.04 С 2 45 км н/о -15.6 -20.4 67 -21 -21 1013.1 1010.5
03 17.04 СЗ 1 45 км н/о -15.6 -21.0 63 -18 -18 1012.7 1010.2
04 17.04 С 1 21 км слаб. ливневой снег н/о -17.2 -21.8 67 -20 -20 1012.4 1009.9
05 17.04 С 1 17 км слаб. ливневой снег н/о -18.1 -22.4 69 -21 -21 1012.1 1009.6
06 17.04 С 1 40 км {ливн. осадки} н/о -20.1 -23.7 73 -23 -23 1012.1 1009.5 -20.1 -10.7
07 17.04 С 1 14 км слаб. ливневой снег н/о -20.2 -23.4 76 -21 -21 1012.2 1009.6
08 17.04 С 1 30 км слаб. ливневой снег н/о -20.5 -23.9 74 -21 -21 1012.0 1009.4
09 17.04 С 1 50 км в посл. час снег {ливн. осадки} н/о -22.2 -26.2 70 -26 -26 1011.7 1009.1
10 17.04 С 1 35 км {ливн. осадки, снег} н/о -20.8 -24.3 73 -22 -22 1011.6 1009.0
11 17.04 штиль 0 35 км в посл. час снег {ливн. осадки} н/о -18.8 -23.1 69 -19 -19 1011.2 1008.6
12 17.04 С 1 20 км в посл. час снег {ливн. осадки} н/о -17.9 -21.9 71 -18 -18 1010.7 1008.2
13 17.04 С 1 7000 м {ливн. осадки} н/о -17.3 -22.8 62 -18 -18 1010.4 1007.8
14 17.04 штиль 0 14 км слаб. ливневой снег н/о -15.9 -21.3 63 -16 -16 1009.9 1007.4
15 17.04 ЮВ 2 12 км {ливн. осадки} н/о -15.8 -21.0 64 -20 -20 1009.3 1006.8
16 17.04 ЮВ 1 16 км {ливн. осадки} н/о -14.5 -20.6 60 -15 -15 1009.0 1006.5
17 17.04 ЮВ 1 19 км {ливн. осадки} н/о -16.6 -21.8 64 -19 -19 1008.4 1005.9
18 17.04 ЮВ 1 19 км н/о -15.6 -21.8 59 -18 -18 1008.3 1005.8 -22.2 -12.7
19 17.04 Ю 1 26 км н/о -15.7 -20.9 64 -16 -16 1008.0 1005.4
20 17.04 Ю 1 30 км н/о -16.3 -20.5 70 -17 -17 1008.1 1005.5
21 17.04 Ю 1 18 км н/о -16.5 -20.7 70 -19 -19 1008.4 1005.9
22 17.04 Ю 3 3700 м снежные зёрна {ливн. осадки} н/о -17.1 -20.8 73 -23 -23 1008.9 1006.4
23 17.04 СЗ 2 4800 м слаб. снег н/о -16.6 -20.1 74 -22 -22 1009.3 1006.7
00 18.04 Ю 1 3200 м снежные зёрна н/о -17.1 -20.4 75 -18 -18 1009.8 1007.3
01 18.04 Ю 1 11 км слаб. ливневой снег н/о -17.1 -20.6 74 -18 -18 1010.0 1007.5
02 18.04 Ю 1 6000 м слаб. снег н/о -17.9 -21.5 73 -18 -18 1010.4 1007.8
03 18.04 Ю 1 45 км слаб. ливневой снег н/о -17.5 -21.0 74 -20 -20 1010.5 1007.9
04 18.04 ЮВ 4 45 км {ливн. осадки, снег} н/о -16.5 -21.5 65 -25 -25 1010.7 1008.2
05 18.04 В 5 50 км {ливн. осадки, снег} н/о -15.7 -22.6 55 -24 -24 1011.0 1008.5
06 18.04 ЮВ 2 50 км н/о -17.1 -23.3 58 -23 -23 1011.4 1008.9 -17.9 -14.5
07 18.04 В 3 50 км н/о -16.1 -24.9 47 -22 -22 1011.7 1009.1
08 18.04 ЮВ 3 45 км н/о -16.3 -27.2 38 -23 -23 1012.0 1009.4
09 18.04 СВ 3 40 км н/о -17.2 -26.9 43 -24 -24 1012.0 1009.4
10 18.04 СВ 2 45 км н/о -16.7 -26.2 44 -21 -21 1012.2 1009.6
11 18.04 СЗ 3 10 км слаб. снег н/о -16.6 -24.3 51 -24 -24 1012.5 1010.0
12 18.04 С 3 3300 м снежные зёрна н/о -16.6 -21.8 64 -23 -23 1012.9 1010.3
13 18.04 С 2 3700 м снежные зёрна н/о -16.3 -21.5 64 -22 -22 1013.2 1010.6
14 18.04 С 1 8000 м слаб. снег н/о -15.3 -20.3 65 -18 -18 1013.3 1010.8
15 18.04 Ю 5 30 км {снег} н/о -17.4 -25.8 48 -26 -26 1014.0 1011.5
16 18.04 В 5 30 км {снег} н/о -16.9 -28.0 38 -26 -26 1014.4 1011.8
17 18.04 ЮВ 4 24 км {снег} н/о -17.6 -27.3 42 -26 -26 1014.6 1012.1
18 18.04 ЮВ 6 35 км н/о -17.8 -27.5 42 -28 -28 1014.8 1012.2 -17.8 -15.2
19 18.04 ЮВ 6 30 км н/о -18.1 -27.5 43 -29 -29 1015.3 1012.7
20 18.04 Ю 5 35 км н/о -18.0 -28.2 40 -27 -27 1015.6 1013.0
21 18.04 Ю 6 35 км н/о -18.4 -28.6 40 -29 -29 1015.9 1013.3
22 18.04 Ю 5 45 км н/о -18.7 -28.8 41 -28 -28 1016.3 1013.7
23 18.04 ЮВ 3 30 км н/о -18.8 -27.6 46 -26 -26 1016.2 1013.6
00 19.04 ЮВ 4 45 км н/о -19.4 -29.2 41 -28 -28 1016.1 1013.5
01 19.04 ЮВ 4 45 км н/о -20.1 -29.1 44 -29 -29 1016.1 1013.5
02 19.04 В 3 50 км н/о -20.5 -30.5 40 -28 -28 1015.7 1013.1
03 19.04 В 3 50 км н/о -20.5 -31.0 38 -28 -28 1015.1 1012.5
04 19.04 СВ 4 50 км н/о -21.3 -30.7 42 -31 -31 опасность
обморожения
1014.4 1011.8
05 19.04 СВ 4 50 км н/о -21.3 -30.7 42 -30 -30 1014.1 1011.5
06 19.04 СВ 5 50 км н/о -21.7 -29.6 49 -32 -32 опасность
обморожения
1014.0 1011.4 -22.0 -17.7
07 19.04 СВ 5 50 км н/о -21.4 -30.3 44 -31 -31 опасность
обморожения
1013.4 1010.8
08 19.04 В 2 50 км н/о -21.6 -31.0 42 -27 -27 1013.4 1010.8
09 19.04 СВ 1 45 км н/о -21.6 -29.5 49 -25 -25 1013.3 1010.7
10 19.04 С 1 10 км снежные зёрна н/о -21.2 -29.1 49 -22 -22 1013.3 1010.7
11 19.04 С 1 8000 м снежные зёрна н/о -21.8 -27.9 58 -25 -25 1013.6 1011.0
12 19.04 СВ 1 3500 м слаб. ливневой снег н/о -20.3 -26.5 58 -21 -21 1013.7 1011.1
13 19.04 штиль 0 17 км в посл. час зёрна {ливн. осадки} н/о -18.8 -26.4 51 -19 -19 1013.7 1011.2
14 19.04 В 2 20 км {ливн. осадки} н/о -19.4 -26.5 53 -24 -24 1014.0 1011.4
15 19.04 СВ 2 12 км {ливн. осадки} н/о -18.2 -24.5 58 -23 -23 1013.8 1011.2
16 19.04 ЮВ 4 11 км {ливн. осадки} н/о -19.3 -24.7 62 -28 -28 1013.8 1011.2
17 19.04 ЮВ 4 9000 м {ливн. осадки} н/о -18.9 -24.2 63 -27 -27 1013.7 1011.1
18 19.04 ЮВ 4 15 км н/о -18.9 -24.0 64 -27 -27 1013.6 1011.0 -22.0 -17.6
19 19.04 В 3 18 км н/о -18.2 -25.4 53 -25 -25 1013.6 1011.0
20 19.04 ЮВ 2 12 км н/о -17.7 -26.1 48 -22 -22 1013.4 1010.9
21 19.04 ЮВ 1 10 км н/о -18.1 -25.8 51 -19 -19 1013.4 1010.8
22 19.04 штиль 0 8000 м снежные зёрна {дымка} н/о -18.4 -25.1 56 -18 -18 1013.5 1010.9
23 19.04 ЮВ 1 8000 м слаб. ливневой снег н/о -19.7 -24.9 63 -20 -20 1013.5 1011.0

 

Местоположение метеостанции Mittarfik Qaanaaq (Гренландия): широта 77.48 долгота -69.38 высота над уровнем моря 16 м.

В архиве по умолчанию представлена погода в Mittarfik Qaanaaq за последнюю неделю. Архивные данные за месяц целиком и за предыдущие месяцы, начиная с января 2011 года, Вы можете получить, выбрав интересующий диапазон дат из раскрывающегося списка и нажав кнопку "Ввод!".


*Определитесь, кто Вы:
робот инопланетянин человек

Внимание! Время в таблицах - всемирное. Для получения местного времени необходимо прибавить поправку, которая равна -4 ч.

Смотрите также архив погоды в соседних городах и на ближайших метеорологических станциях:

Погода в Kitsissut (Гренландия) (131 км)
Погода в Юрике (Нунавут, Канада) (452 км)
Погода в Юрике (Нунавут, Канада) (453 км)
Погода в Kitsissorsuit (Гренландия) (496 км)
Погода в Алерте (Нунавут, Канада) (574 км)
Погода в Понд-Инлете (Нунавут, Канада) (584 км)
Погода в Понд-Инлете (Нунавут, Канада) (587 км)
Погода в Mittarfik Upernavik (Гренландия) (642 км)
Погода в Арктик Бей (Нунавут, Канада) (663 км)
Погода в Аэропорту Ресольют Бэй (Нунавут, Канада) (741 км)

Пояснения к столбцам:

Ветер - указаны скорость ветра в м/с - средняя за 10 мин, порывы в срок и между сроками (в фигурных скобках) и направление, откуда дует ветер: С - северный, СВ - северо-восточный, В - восточный, ЮВ - юго-восточный, Ю - южный, ЮЗ - юго-западный, З - западный, СЗ - северо-западный.
Видимость - горизонтальная дальность видимости в метрах или километрах. При видимости от 1 до 10 км при отсутствии осадков обычно наблюдается дымка, при ухудшении видимости до 1 км и менее - туман. В сухую погоду видимость может ухудшаться дымом, пылью или мглою.
Явления - указаны атмосферные явления, наблюдавшиеся в срок или в последний час перед сроком; фигурными скобками обозначены явления, наблюдавшиеся между сроками (за 1-3 часа до срока); квадратными скобками обозначены град или гололедные отложения с указанием их диаметра в мм.
Облачность - указаны через наклонную черту общая и нижняя облачность в баллах и высота нижней границы облаков в метрах; квадратными скобками обозначены формы облаков: Ci - перистые, Cs - перисто-слоистые, Cc - перисто-кучевые, Ac - высококучевые, As - высокослоистые, Sc - слоисто-кучевые, Ns - слоисто-дождевые, Cu - кучевые, Cb - кучево-дождевые. Подробнее классификацию облаков см. в Атласе облаков (PDF).
T - Температура воздуха - температура, измеренная на высоте 2 м над землей.
Td - Температура точки росы - температура, при понижении до которой содержащийся в воздухе водяной пар достигнет насыщения.
f - Относительная влажность воздуха - влажноcть воздуха, измеренная на высоте 2 м над землей.
Te - Эффективная температура - температура, которую ощущает одетый по сезону человек в тени. Характеристика душности погоды. При расчете учитывается влияние влажности воздуха и скорости ветра на теплоощущения человека.
Tes - Эффективная температура на солнце - температура, которую ощущает человек, с поправкой на солнечный нагрев. Характеристика знойности погоды. Зависит от высоты солнца над горизонтом, облачности и скорости ветра. Ночью, в пасмурную погоду, а также при ветре 12 м/с и более поправка равна нулю.
P - Атмосферное давление - приведенное к уровню моря атмосферное давление.
Po - Атмосферное давление - измеренное на уровне метеостанции атмосферное давление.
Tmin - Минимальная температура - минимум температуры воздуха на высоте 2 м над землей.
Tmax - Максимальная температура - максимум температуры воздуха на высоте 2 м над землей.
R - Количество осадков - Количество выпавших осадков за период времени, мм. При наведении курсора мыши на число - период времени, за который выпало указанное количество осадков.
R24 - Количество осадков - Количество выпавших осадков за 24 часа, мм.
S - Снежный покров - Высота снежного покрова, см. При наведении курсора мыши на число - состояние снежного покрова и степень покрытия местности в баллах.